Retour au catalogue

FREGAT R/B

LostHEO
NORAD 37939·ROCKET BODY·🇷🇺 Russia

Lancé Nov 28, 2011 depuis Plesetsk Cosmodrome

Loading…

Prochains Passages (prochaines 24 heures)

TLE

PériméSource: Space-Track

Époque: Aug 5, 2026, 20:14 UTC

1 37939U 11071B   26217.84353956 -.00000059  00000-0  00000+0 0  9996
2 37939  65.6274 320.7205 0072673  83.2326 245.8437  2.09024524112129

Suivez FREGAT R/B en temps réel avec AllMySat

Download on the App Store